Wind_Speed
35 36 36 37 39 40 41 41 43 43 43 44 45 44 45 45 46 46 46 45 45 45 45 45 44 43 42 42 43 42 41 41 41 40 39 39 39 39 39 39 39 40 41 42
31 33 34 35 37 38 39 39 40 41 41 42 43 43 44 44 44 44 44 44 43 44 44 45 45 45 44 44 44 44 44 43 43 43 43 43 42 42 42 43 43 43 43 44
26 29 31 33 35 36 37 37 37 39 39 39 40 40 41 42 43 43 44 44 43 44 45 46 46 46 46 46 45 45 46 46 46 46 46 46 46 46 46 46 46 45 45 46
21 24 27 30 31 33 34 34 35 35 37 38 39 39 39 39 41 42 43 43 44 43 44 46 46 47 47 47 47 47 48 47 48 49 49 49 48 48 48 48 49 49 49 50
16 18 21 25 27 30 31 31 32 32 34 36 37 37 37 37 38 39 40 42 42 43 43 44 45 46 47 48 49 49 49 49 50 51 51 51 52 52 52 52 52 53 53 53
12 14 16 19 21 24 25 26 28 29 31 33 33 35 35 35 36 37 38 39 40 41 42 44 44 45 46 47 49 50 51 52 52 53 53 54 54 55 56 55 55 56 55 55
9 11 12 14 16 18 21 22 23 25 28 31 31 33 34 34 35 36 36 37 39 40 41 42 43 44 45 47 49 50 52 53 54 54 56 57 58 59 59 59 59 59 59 58
6 8 10 11 13 15 17 18 20 22 24 27 28 31 32 32 34 35 36 37 37 39 39 41 43 43 45 47 49 51 52 53 55 56 57 58 60 61 62 62 62 61 61 60
3 4 7 8 10 13 15 17 18 20 22 23 24 26 27 28 29 32 34 36 38 39 39 40 42 43 44 45 47 50 52 53 55 56 57 58 59 61 62 63 63 63 63 63
1 3 5 6 7 9 12 13 15 17 19 21 22 23 25 26 26 28 30 32 34 36 37 39 40 42 43 44 46 47 49 52 54 55 57 58 59 60 62 63 64 65 65 65
2 2 3 5 6 7 10 12 14 15 17 18 20 20 22 23 25 27 28 30 32 34 36 37 38 40 42 44 45 46 48 50 52 54 56 57 58 58 59 61 62 62 63 63
3 2 2 4 4 6 7 9 12 14 16 18 19 19 19 21 23 25 27 29 30 32 34 37 38 40 41 43 45 46 48 49 51 53 54 56 57 58 59 60 61 61 62 63
5 4 5 5 6 6 7 7 10 12 15 17 18 18 19 21 22 24 26 28 30 32 34 36 38 39 41 42 44 45 47 49 50 52 54 55 56 58 59 60 61 61 62 62
7 7 7 7 8 9 9 9 11 12 14 15 16 18 19 21 22 23 25 26 28 30 32 34 36 37 39 41 43 45 46 47 48 50 51 53 55 57 59 60 61 62 63 63
9 9 9 9 9 9 10 11 12 13 14 16 17 18 20 21 23 24 25 26 27 28 30 32 34 35 37 39 41 42 44 45 47 48 50 51 52 54 57 59 60 61 62 63
10 10 11 11 12 12 12 13 15 15 16 17 18 19 21 23 24 25 27 28 29 30 32 33 34 36 37 38 40 41 43 44 46 48 49 51 52 54 56 57 59 60 62 63
11 12 12 12 13 15 14 14 16 17 18 19 20 21 22 23 24 25 27 28 29 30 32 32 34 36 37 38 40 42 43 45 46 48 49 50 52 53 54 56 58 59 61 62
12 13 13 14 15 16 16 17 17 18 19 20 22 23 23 24 25 26 27 29 29 30 31 32 33 35 37 38 39 41 42 44 45 47 48 50 51 52 53 55 56 57 60 62
14 14 15 16 16 17 17 18 19 20 20 21 22 23 24 25 26 27 28 29 30 31 33 35 36 37 38 39 40 42 42 43 45 47 48 50 52 53 54 55 57 58 59 61
15 15 16 17 18 18 18 19 20 21 21 22 24 25 26 27 28 28 30 31 32 33 35 36 37 38 39 41 42 43 44 46 47 48 50 51 52 53 55 56 57 57 58 60
18 18 19 19 20 20 20 21 22 23 24 24 25 26 28 29 31 31 32 33 34 35 37 38 38 39 40 42 43 44 45 47 48 50 51 52 53 53 54 55 56 57 58 58
21 21 21 22 22 22 22 23 24 25 26 27 28 29 29 30 31 32 34 35 36 37 38 39 39 40 42 43 44 44 45 47 48 49 50 51 51 51 51 52 53 54 54 55
23 23 23 24 24 25 25 25 26 27 28 29 30 31 31 32 33 34 35 36 37 39 40 41 42 42 43 45 45 46 47 48 49 49 50 50 50 51 51 51 52 52 53 54
25 26 26 26 26 27 27 28 29 30 31 31 32 33 34 34 35 36 37 38 39 40 41 42 43 43 44 46 47 47 48 49 50 50 50 50 50 50 51 51 51 52 53 54
26 28 28 29 29 30 30 31 32 33 33 33 34 35 36 37 38 39 40 41 42 42 43 44 44 45 46 47 47 48 49 50 50 50 50 50 50 50 51 51 51 51 52 54
27 29 30 30 31 32 32 33 34 34 34 34 35 36 37 38 39 40 41 42 42 43 44 45 46 47 48 48 49 50 50 51 50 50 49 49 50 51 51 51 51 52 53 53
Wind_Direction
237 237 238 239 238 237 238 239 240 240 240 240 241 242 243 243 243 243 244 245 247 247 247 247 248 248 249 250 250 250 251 251 251 252 255 256 257 257 258 260 261 261 260 260
236 237 237 238 238 238 238 238 239 240 241 241 241 241 242 243 244 244 244 245 246 247 247 248 248 248 249 250 250 251 251 251 251 252 254 256 257 258 260 261 261 263 262 262
238 237 236 236 236 237 238 239 240 242 242 242 241 240 241 242 244 245 245 246 247 247 247 248 249 249 250 250 250 251 252 252 251 252 254 255 256 257 260 261 261 262 263 263
239 236 236 234 234 235 238 238 241 243 242 242 241 242 241 243 244 245 247 248 248 248 249 249 249 249 250 251 251 251 251 252 253 253 254 255 257 257 258 259 261 262 264 264
236 234 233 233 234 235 237 238 240 242 242 243 242 244 243 244 245 246 248 249 250 249 250 251 251 251 251 251 252 253 253 254 255 255 256 256 257 258 259 261 262 262 262 264
233 233 234 232 233 235 237 238 239 242 242 242 243 245 246 247 247 249 251 252 252 252 253 253 253 253 253 252 252 253 254 254 256 256 257 258 259 260 260 260 261 261 262 263
231 232 234 232 234 236 237 237 239 240 242 244 245 247 247 248 251 253 254 254 254 255 256 256 256 256 256 255 255 256 256 257 258 259 259 260 260 261 261 261 262 262 262 263
229 230 231 232 234 236 237 237 240 244 245 247 247 249 249 252 254 255 255 256 256 257 258 258 257 258 258 258 257 257 257 258 259 260 261 261 262 262 263 263 263 264 264 265
216 226 225 232 238 240 238 240 244 247 249 248 247 250 252 255 257 258 258 259 260 260 260 261 259 260 260 260 259 259 259 259 260 261 261 262 263 264 264 265 265 264 264 266
244 237 232 231 238 239 240 243 244 245 249 252 252 254 256 257 259 260 262 263 263 264 264 263 263 261 262 263 263 263 264 262 262 262 263 263 264 265 266 266 266 264 264 265
351 263 241 241 247 255 246 246 250 250 251 255 258 260 261 263 263 265 266 267 268 268 267 266 265 266 266 267 267 268 268 267 266 266 265 266 267 267 266 267 267 267 266 267
1 333 285 262 271 271 269 258 258 258 258 258 264 266 268 271 271 271 271 270 270 270 271 271 271 270 270 270 270 271 271 270 270 269 268 268 268 267 267 267 267 268 269 269
338 326 309 289 282 282 278 276 271 267 265 265 266 270 275 277 278 278 277 276 275 274 274 275 275 275 275 274 273 273 273 273 273 273 272 271 269 268 268 267 267 268 269 270
318 309 304 301 297 288 285 285 282 277 272 272 273 278 279 281 283 283 283 283 282 280 278 278 279 279 279 278 277 277 276 276 275 275 275 274 272 270 270 270 269 269 269 270
305 299 295 294 292 291 289 286 285 284 284 282 281 281 283 285 287 286 286 286 286 285 286 285 284 283 282 282 281 280 279 278 277 277 277 276 275 273 272 272 272 271 270 271
303 297 292 290 288 290 292 288 285 286 287 288 287 286 286 286 287 288 288 287 287 289 291 290 288 286 285 285 284 284 282 281 280 279 278 278 277 275 274 274 274 273 273 273
304 300 293 291 289 289 292 291 289 287 288 290 291 291 289 288 289 290 289 289 290 291 292 292 291 290 289 288 286 286 286 285 283 282 282 281 280 279 278 277 276 275 274 274
307 304 303 295 291 292 293 292 293 293 293 291 291 292 291 291 291 291 292 292 292 292 293 293 294 294 293 292 291 290 289 288 287 286 285 284 283 282 281 280 279 278 277 276
307 305 305 303 297 294 296 296 295 295 296 295 293 292 292 293 293 293 293 294 294 293 293 294 295 296 295 295 294 292 291 291 291 290 289 288 286 284 283 283 281 280 280 279
303 304 304 304 301 298 298 298 297 297 299 298 295 293 292 293 294 295 294 294 294 294 295 295 296 296 295 295 295 294 293 293 294 294 293 292 289 287 285 284 284 283 282 282
298 298 299 298 297 298 300 297 297 298 300 301 300 298 296 295 295 296 295 294 295 295 295 296 296 297 297 297 296 296 296 296 296 296 295 294 292 290 288 287 286 285 284 284
296 297 296 295 295 298 297 295 295 296 298 299 299 299 298 298 297 296 296 296 296 297 297 298 298 298 298 299 298 298 298 298 298 297 297 296 294 293 292 290 289 289 288 286
294 294 294 294 295 296 295 296 297 296 296 297 297 298 298 298 298 298 298 298 298 298 298 299 299 299 300 300 299 299 299 299 299 299 298 297 296 295 294 293 293 291 290 289
290 290 290 291 293 293 295 296 297 298 298 297 296 296 297 297 297 298 299 299 299 299 299 299 299 299 300 300 299 299 299 300 300 299 298 298 297 296 295 295 294 293 292 291
290 289 288 288 290 290 292 294 295 297 298 297 297 297 297 297 297 297 297 298 299 299 300 300 300 300 301 301 300 300 301 301 300 299 299 298 298 297 297 296 295 295 294 294
289 289 289 289 290 290 292 293 295 297 299 298 297 297 298 297 297 297 298 299 299 300 300 300 301 301 302 302 302 301 301 301 300 299 299 299 299 299 298 297 296 295 295 295
Height
5685 5690 5693 5697 5701 5704 5707 5711 5714 5718 5721 5725 5729 5733 5736 5739 5742 5745 5748 5750 5752 5755 5757 5760 5762 5765 5767 5769 5772 5774 5776 5778 5780 5782 5784 5785 5786 5786 5787 5787 5787 5787 5787 5787
5677 5681 5684 5687 5691 5694 5698 5702 5705 5709 5711 5715 5719 5723 5726 5729 5732 5735 5738 5741 5743 5746 5748 5750 5752 5754 5757 5760 5762 5764 5766 5768 5770 5772 5774 5775 5775 5776 5777 5777 5777 5777 5777 5777
5669 5673 5675 5679 5682 5686 5689 5693 5697 5700 5702 5705 5710 5714 5716 5719 5722 5725 5729 5731 5734 5736 5738 5740 5742 5745 5747 5749 5752 5754 5756 5758 5760 5761 5763 5764 5765 5766 5766 5767 5767 5767 5767 5767
5662 5665 5668 5671 5674 5678 5682 5685 5688 5691 5694 5697 5701 5704 5709 5711 5713 5716 5719 5722 5724 5727 5728 5730 5732 5734 5737 5739 5741 5744 5746 5747 5748 5749 5751 5752 5753 5754 5755 5755 5756 5756 5755 5755
5657 5659 5661 5664 5668 5671 5675 5678 5681 5684 5686 5689 5692 5696 5701 5702 5705 5708 5710 5712 5714 5717 5719 5721 5723 5725 5726 5728 5730 5733 5734 5736 5737 5738 5739 5740 5741 5742 5742 5742 5743 5744 5743 5743
5654 5655 5657 5659 5662 5665 5668 5672 5675 5677 5679 5682 5685 5688 5692 5695 5697 5699 5701 5703 5705 5707 5709 5711 5713 5714 5716 5717 5719 5721 5723 5724 5725 5726 5727 5728 5729 5729 5729 5729 5729 5730 5730 5730
5651 5653 5654 5656 5659 5661 5664 5667 5669 5670 5672 5675 5678 5680 5685 5687 5689 5691 5692 5694 5696 5698 5699 5700 5702 5704 5705 5707 5708 5710 5711 5712 5713 5713 5714 5715 5715 5715 5715 5714 5715 5715 5715 5715
5649 5651 5652 5653 5656 5657 5659 5662 5665 5666 5667 5670 5672 5673 5678 5680 5681 5682 5684 5685 5687 5688 5689 5690 5692 5693 5695 5696 5697 5698 5699 5700 5700 5701 5701 5701 5701 5701 5701 5700 5700 5700 5700 5700
5648 5650 5651 5651 5652 5654 5655 5657 5659 5661 5662 5664 5665 5667 5671 5673 5674 5674 5675 5676 5677 5679 5680 5681 5682 5683 5684 5685 5685 5686 5686 5687 5687 5687 5687 5687 5687 5687 5686 5686 5685 5685 5684 5684
5648 5649 5650 5650 5651 5651 5653 5653 5655 5656 5657 5658 5660 5662 5665 5666 5667 5667 5668 5668 5669 5669 5670 5671 5672 5673 5673 5673 5673 5674 5674 5674 5674 5674 5673 5673 5673 5672 5672 5671 5670 5669 5669 5669
5648 5649 5649 5649 5649 5649 5650 5651 5651 5652 5653 5654 5655 5660 5659 5660 5660 5660 5660 5660 5660 5660 5661 5661 5662 5662 5662 5662 5662 5662 5662 5661 5661 5660 5659 5659 5658 5657 5656 5655 5655 5654 5653 5653
5648 5648 5648 5648 5648 5647 5647 5647 5648 5649 5649 5650 5651 5656 5653 5653 5653 5653 5653 5653 5652 5652 5652 5651 5651 5651 5650 5650 5650 5650 5649 5648 5648 5647 5645 5644 5643 5641 5640 5640 5639 5638 5637 5637
5648 5647 5647 5647 5648 5647 5646 5645 5645 5645 5645 5646 5646 5651 5648 5647 5646 5646 5645 5645 5644 5643 5643 5642 5641 5640 5639 5639 5638 5637 5636 5635 5634 5632 5630 5629 5627 5625 5624 5623 5622 5622 5621 5620
5646 5646 5646 5646 5645 5644 5644 5644 5642 5642 5642 5642 5642 5643 5642 5641 5640 5639 5638 5637 5636 5635 5634 5632 5631 5630 5629 5627 5626 5625 5623 5622 5620 5618 5616 5613 5612 5610 5608 5607 5606 5605 5604 5603
5645 5644 5643 5643 5642 5642 5641 5641 5640 5639 5639 5638 5638 5637 5636 5634 5633 5632 5631 5629 5628 5626 5625 5623 5622 5620 5618 5616 5614 5613 5611 5608 5606 5604 5601 5599 5596 5595 5593 5591 5589 5588 5587 5586
5642 5642 5641 5641 5639 5639 5638 5637 5636 5635 5635 5634 5632 5632 5630 5629 5627 5625 5624 5622 5620 5618 5616 5614 5612 5610 5607 5605 5603 5600 5598 5595 5593 5590 5587 5584 5582 5579 5577 5575 5573 5571 5569 5568
5640 5639 5638 5637 5636 5635 5635 5634 5632 5631 5630 5629 5627 5627 5624 5622 5620 5618 5616 5614 5612 5610 5608 5605 5602 5599 5596 5593 5591 5588 5585 5582 5579 5575 5572 5569 5566 5563 5561 5558 5556 5554 5552 5550
5638 5636 5634 5633 5633 5631 5633 5629 5627 5626 5625 5623 5621 5619 5617 5616 5613 5612 5609 5607 5604 5602 5599 5596 5593 5589 5586 5583 5579 5575 5572 5568 5565 5561 5558 5554 5551 5548 5545 5542 5539 5536 5534 5531
5634 5632 5630 5629 5627 5626 5627 5624 5621 5619 5619 5617 5615 5613 5611 5608 5606 5605 5602 5599 5596 5593 5590 5586 5583 5579 5575 5571 5567 5564 5560 5556 5552 5548 5544 5540 5536 5532 5529 5525 5523 5519 5516 5514
5631 5629 5627 5624 5622 5621 5622 5619 5615 5614 5613 5611 5608 5606 5603 5601 5599 5598 5594 5591 5588 5584 5581 5577 5573 5569 5565 5560 5556 5552 5548 5543 5539 5534 5530 5525 5520 5516 5512 5508 5505 5501 5498 5495
5626 5624 5623 5620 5617 5616 5616 5612 5610 5609 5607 5604 5601 5598 5595 5593 5591 5588 5585 5582 5578 5575 5571 5567 5563 5558 5554 5549 5545 5540 5535 5530 5526 5520 5515 5510 5504 5500 5495 5491 5487 5483 5480 5476
5621 5619 5617 5614 5612 5613 5609 5606 5604 5602 5599 5596 5593 5590 5588 5585 5582 5579 5576 5572 5568 5565 5561 5557 5553 5548 5543 5538 5533 5528 5523 5518 5512 5507 5501 5495 5489 5484 5479 5475 5471 5466 5462 5459
5615 5613 5610 5609 5609 5606 5602 5599 5597 5594 5591 5588 5585 5582 5579 5576 5573 5570 5566 5562 5559 5555 5551 5546 5542 5537 5532 5526 5521 5516 5510 5504 5499 5493 5486 5480 5475 5470 5464 5460 5455 5451 5446 5442
5608 5605 5603 5601 5600 5598 5594 5591 5589 5586 5583 5580 5577 5574 5570 5567 5564 5560 5556 5552 5548 5544 5540 5535 5530 5526 5520 5514 5508 5502 5497 5491 5485 5478 5472 5466 5461 5456 5451 5446 5440 5436 5431 5427
5600 5597 5594 5593 5592 5589 5587 5583 5580 5577 5574 5571 5568 5564 5561 5557 5553 5549 5545 5541 5537 5533 5528 5523 5518 5513 5508 5502 5496 5489 5483 5477 5470 5464 5459 5453 5447 5442 5437 5432 5426 5421 5417 5411
5592 5589 5586 5584 5583 5579 5578 5574 5571 5567 5564 5561 5557 5554 5550 5546 5542 5538 5534 5530 5525 5521 5516 5511 5506 5500 5495 5488 5482 5476 5469 5462 5456 5451 5445 5439 5434 5428 5422 5417 5413 5407 5402 5396